Air Force Academy, CO

4:59 AM MST on November 13, 2019 (GMT -0700)
Usaf Academy

Weather History for KAFF - May, 2019

Change the Weather History Date:

Sunday, May 19, 2019

  Actual Average Record
Temperature  
Mean Temperature 40 °F -  
Max Temperature 56 °F 66 °F 81 °F (2014)
Min Temperature 26 °F 39 °F 26 °F (2019)
Degree Days  
Heating Degree Days 24    
Moisture  
Dew Point 32 °F    
Average Humidity 68    
Maximum Humidity 94    
Minimum Humidity 37    
Precipitation  
Precipitation 0.00 in - - ()
Sea Level Pressure  
Sea Level Pressure 29.89 in    
Wind  
Wind Speed 8 mph (SSE)    
Max Wind Speed 20 mph    
Max Gust Speed 22 mph    
Visibility 10 miles    
Events      
Averages and records for this station are not official NWS values.
T = Trace of Precipitation, MM = Missing Value Source: NWS Daily Summary

Daily Weather History Graph

Daily Weather History Graph

Search for Another Location

Airport or City:

Astronomy

May. 19, 2019 Rise Set
Actual Time 5:43 AM MDT 8:08 PM MDT
Civil Twilight 5:12 AM MDT 8:39 PM MDT
Nautical Twilight 4:35 AM MDT 9:16 PM MDT
Astronomical Twilight 3:53 AM MDT 9:58 PM MDT
Moon 9:11 PM MDT (5/19) 6:30 AM MDT (5/19)
Length of Visible Light 15h 26m
Length of Day
14h 25m
Full, 99% of the Moon is Illuminated
May 19
Full
May 26
Last Quarter
Jun 3
New
Jun 10
First Quarter
Jun 17
Full

Hourly Weather History & Observations

Time (MDT) Temp. Windchill Dew Point Humidity Pressure Visibility Wind Dir Wind Speed Gust Speed Precip Events Conditions
12:58 AM 37.6 °F 33.1 °F 33.3 °F 84% 29.84 in 10.0 mi East 5.8 mph - N/A   Clear
1:58 AM 33.1 °F 30.0 °F 30.9 °F 92% 29.84 in 10.0 mi North 3.5 mph - N/A   Clear
2:58 AM 29.1 °F 22.1 °F 27.7 °F 94% 29.91 in 10.0 mi NNW 6.9 mph - N/A   Clear
3:58 AM 28.8 °F 20.2 °F 27.3 °F 94% 29.95 in 10.0 mi North 9.2 mph - N/A   Clear
4:58 AM 27.3 °F 22.0 °F 25.3 °F 92% 29.95 in 10.0 mi NNW 4.6 mph - N/A   Clear
5:13 AM 26.6 °F 22.6 °F 24.8 °F 93% 29.96 in 10.0 mi North 3.5 mph - N/A   Mostly Cloudy
5:50 AM 28.4 °F 23.3 °F 26.6 °F 93% 29.97 in 10.0 mi North 4.6 mph - N/A   Mostly Cloudy
5:58 AM 29.1 °F - 27.3 °F 93% 29.97 in 10.0 mi Calm Calm - N/A   Overcast
6:58 AM 34.5 °F - 31.8 °F 90% 29.95 in 10.0 mi Calm Calm - N/A   Overcast
7:13 AM 37.4 °F - 33.8 °F 87% 29.94 in 10.0 mi Calm Calm - N/A   Overcast
7:58 AM 39.2 °F 33.6 °F 35.6 °F 87% 29.93 in 10.0 mi SSE 8.1 mph - N/A   Overcast
8:28 AM 41.0 °F 36.4 °F 35.6 °F 81% 29.94 in 10.0 mi SE 6.9 mph - N/A   Overcast
8:58 AM 41.4 °F 37.6 °F 35.1 °F 78% 29.97 in 10.0 mi SSE 5.8 mph - N/A   Overcast
9:28 AM 42.8 °F 37.5 °F 35.6 °F 76% 29.94 in 10.0 mi SSE 9.2 mph - N/A   Overcast
9:58 AM 44.6 °F 39.2 °F 34.7 °F 68% 29.94 in 10.0 mi SSE 10.4 mph - N/A   Mostly Cloudy
10:28 AM 48.2 °F - 35.6 °F 62% 29.93 in 10.0 mi SE 12.7 mph - N/A   Mostly Cloudy
10:58 AM 49.8 °F - 34.7 °F 56% 29.91 in 10.0 mi South 12.7 mph 18.4 mph N/A   Overcast
11:13 AM 50.0 °F - 35.6 °F 58% 29.90 in 10.0 mi South 11.5 mph - N/A   Overcast
11:43 AM 50.0 °F - 33.8 °F 54% 29.91 in 10.0 mi South 10.4 mph - N/A   Mostly Cloudy
11:58 AM 50.5 °F - 33.1 °F 51% 29.92 in 10.0 mi SE 17.3 mph - N/A   Mostly Cloudy
12:37 PM 53.6 °F - 33.8 °F 47% 29.87 in 10.0 mi South 12.7 mph - N/A   Mostly Cloudy
12:58 PM 54.5 °F - 31.8 °F 42% 29.84 in 10.0 mi SSE 16.1 mph 21.9 mph N/A   Overcast
1:58 PM 55.6 °F - 29.7 °F 37% 29.84 in 10.0 mi South 19.6 mph - N/A   Overcast
2:58 PM 54.5 °F - 28.8 °F 37% 29.85 in 10.0 mi SSE 15.0 mph - N/A   Overcast
3:58 PM 55.0 °F - 31.1 °F 40% 29.83 in 10.0 mi South 16.1 mph - N/A   Mostly Cloudy
4:58 PM 54.0 °F - 31.5 °F 42% 29.85 in 10.0 mi South 19.6 mph - N/A   Mostly Cloudy
5:13 PM 53.6 °F - 32.0 °F 44% 29.85 in 10.0 mi South 11.5 mph - N/A   Scattered Clouds
5:58 PM 53.1 °F - 32.9 °F 46% 29.83 in 10.0 mi SSW 5.8 mph - N/A   Scattered Clouds
6:58 PM 53.1 °F - 33.4 °F 47% 29.80 in 10.0 mi Calm Calm - N/A   Partly Cloudy
7:58 PM 52.2 °F - 36.0 °F 54% 29.78 in 10.0 mi SE 5.8 mph - N/A   Mostly Cloudy
8:58 PM 50.4 °F - 35.8 °F 57% 29.78 in 10.0 mi North 5.8 mph - N/A   Clear
9:58 PM 44.1 °F 39.0 °F 36.3 °F 74% 29.84 in 10.0 mi NNW 9.2 mph - N/A   Clear
10:58 PM 42.4 °F 36.1 °F 35.1 °F 75% 29.82 in 10.0 mi NNW 11.5 mph - N/A   Overcast
11:58 PM 43.2 °F 37.9 °F 35.1 °F 73% 29.83 in 10.0 mi NNW 9.2 mph - N/A   Overcast